Weather in Saskatoon

Canada     52°09′04″N   106°38′49″W
temp.,
°C
wind,
m/s
gust,
m/s
humid.,
%
clouds,
%
prec.,
mm/h
press.,
hPa
HPBL,
m
12 may, wed
wed1200:00+11s233594 0.0 101920
03:00+9wsw224339 0.0 101910
06:00+8wsw225162 0.1 102019
09:00+14sw224130 0.0 1019461
12:00+18sw22314 0.0 10182218
15:00+19w332483 0.0 10162821
18:00+19wnw442657 0.0 10162667
21:00+14nnw344011 0.0 101658
13 may, thu
thu1300:00+11e486051 0.0 1017157
03:00+10se356214 0.0 101768
06:00+9e2264100 0.0 101822
09:00+14e3347100 0.0 1018379
12:00+18e223371 0.0 10171716
15:00+20nw012745 0.0 10162617
18:00+20s122463 0.0 10152832
21:00+16e343684 0.0 101548
14 may, fri
fri1400:00+13s334386 0.0 101633
03:00+11se35485 0.0 101656
06:00+10wsw335979 0.0 101640
09:00+15nw345064 0.0 1017484
12:00+19nnw333817 0.0 10161631
15:00+19nnw5442100 0.1 10151581
18:00+19n233863 1.0 10151544
21:00+15ne47505 0.0 1015127
15 may, sat
sat1500:00+12ne475580 0.0 1016109
03:00+10e356271 0.0 101696
06:00+10se226673 0.0 101633
09:00+16s3451100 0.0 1015447
12:00+21wsw3436100 0.0 10132254
15:00+22wnw3630100 0.0 10112511
18:00+19e334446 0.0 1010540
21:00+16ene235698 0.0 101028
16 may, sun
sun1600:00+15se346059 0.0 100963
03:00+13ssw3463100 0.0 100955
06:00+13nne356899 0.1 1010137
09:00+17nne235352 0.0 1010514
12:00+21nnw1340100 0.0 10101437
15:00+24wnw133393 0.0 10092109
18:00+25e3331100 0.0 10071603
21:00+20e71145100 0.0 1007436